Showing default

DIADEME 1, 2674

Orbit data source: Space-Track

DIADEME 1, 2674 is a payload satellite owned by CNES (FR) in LEO that was launched on Wed, 08 Feb 1967 UTC via a DIAMANT A launch vehicle from the Hamma Guira Space Track Range (HGSTR). Payloads include a variety of satellites, spacecraft, and rockets equipped with specific instruments for various scientific and technological missions. These include communications satellites like Starlink; space stations such as the ISS; scientific satellites like the Hubble; Earth observation satellites from companies like Planet Labs, Umbra, and HawkEye 360; GPS; miniature CubeSats for education and research; and military/defense satellites.

Loading next visibility...
DIADEME 1 details
Identifier
2674, 1967-011A
Orbit
LEO
Last TLE update20 hours ago
Origin
Flag of FRCNES (FR)
ManufacturerCNES
MissionCivil Geodetic
Bus & MotorD-1, Unknown motor
Mass23 kg wet, 23 kg dry
Launch date (UTC)
1967-02-08 (58 years ago)
Launch vehicle
DIAMANT A
Launch site
Hamma Guira Space Track Range (HGSTR)
Object type
Payload
Rocket body
Debris
Shape & HBRCyl + 4 Pan, 1.5 m
Radar Cross Section0.455 m², Medium (>0.1 m² and < 1m²)

Expand to show TLE details & history

TLE from 20 hours ago
0 DIADEME 1
1 02674U 67011A   24355.76811533  .00004285  00000-0  52381-3 0  9998
2 02674  39.9191  15.8407 0227725 122.4477 239.8543 14.67205664 10073
Epoch: 2024-12-20T18:26Z
Definitive object data (Epoch: 2024-12-20T18:26:05.164Z)
Latitude-0.00003°
Longitude9.49026°
Altitude752.73 km
Speed7.436 km/s
True Right ascension01h 03m 21s
True Declination0° 00' 00"
Sunlit
Object was in daylight at TLE epoch
Visualization TLE readout
Latitude4.6786°
Longitude179.32534°
Altitude552.571 km
Speed7.65 km/s
Apparent Right ascension09h 51m 45s
Apparent Declination-49° 34' 53"
Sunlit
Object is in daylight
Visualization observer readout
Local Sidereal Time13:50:23
Azimuth215.171° SW
Elevation-13.728°
Doppler factor1
Orbital elements
Apogee altitude832.957 km
Perigee altitude511.84 km
Semi-major axis7,050.536 km
Eccentricity0.0227725
Inclination39.9191°
RAAN15.8407°
Arg. of periapsis122.4477°
True anomaly237.63008°
Mean anomaly239.8543°
Eccentric anomaly238.73897°
Mean motion3.66615 °/min
BSTAR0.00052381
Orbital period98.2 mins
Loading maneuver chart data...

DIADEME 1 Visibility forecast

Observer location: undefined°, undefined

Span
Click to sort rows by Start time (UTC) header in descending order
Start Az.
Max El. time (UTC)
Max El. Az.
Max El.
End time (UTC)
End Az.
7 mins2024-12-22 04:58:12.306Z221.681° SW2024-12-22 05:01:12.306Z171.103° S32.694°2024-12-22 05:05:12.306Z89.525° E
6 mins2024-12-22 06:42:12.306Z260.302° W2024-12-22 06:45:12.306Z97.029° ESE43.393°2024-12-22 06:48:12.306Z85.378° E
6 mins2024-12-22 08:25:12.306Z274.712° WNW2024-12-22 08:28:12.306Z165.971° S44.081°2024-12-22 08:31:12.306Z106.291° ESE
5 mins2024-12-22 10:09:12.306Z249.791° W2024-12-22 10:11:12.306Z202.273° SSW24.778°2024-12-22 10:14:12.306Z149.097° SSE
|